Weather History for MROC - September, 2013

Change the Weather History Date:

Friday, September 6, 2013

  Actual Average (MRPV) Record (MRPV)
Temperature  
Mean Temperature 74 °F -  
Max Temperature 82 °F 79 °F - (-1)
Min Temperature 64 °F 63 °F - (-1)
Cooling Degree Days 8    
Growing Degree Days 24 (Base 50)    
Moisture  
Dew Point 66 °F    
Average Humidity 87    
Maximum Humidity 100    
Minimum Humidity 46    
Precipitation  
Precipitation 0.24 in 0.46 in - ()
Sea Level Pressure  
Sea Level Pressure 29.99 in    
Wind  
Wind Speed 5 mph ()    
Max Wind Speed 13 mph    
Max Gust Speed -    
Visibility 6.0 miles    
Events Fog , Rain , Thunderstorm    
Averages and records for this station are not official NWS values.
T = Trace of Precipitation, MM = Missing Value Source: Averaged Metar Reports

Daily Weather History Graph

Daily Weather History Graph

Search for Another Location

Airport or City:

Trip Planner

Search our weather history database for the weather conditions in past years. The results will help you decide how hot, cold, wet, or windy it might be!

Date:

Astronomy

Sep. 06, 2013 Rise Set
Actual Time 5:27 AM CST 5:42 PM CST
Civil Twilight 5:06 AM CST 6:03 PM CST
Nautical Twilight 4:41 AM CST 6:28 PM CST
Astronomical Twilight 4:16 AM CST 6:53 PM CST
Moon 6:16 AM CST (9/6) 6:34 PM CST (9/6)
Length of Visible Light 12h 57m
Length of Day
12h 15m
New Moon, 2% of the Moon is Illuminated
Sep 6
New Moon
Sep 12
First Quarter
Sep 19
Full
Sep 26
Last Quarter
Oct 4
New

Hourly Weather History & Observations

Time (CST) Temp. Heat Index Dew Point Humidity Pressure Visibility Wind Dir Wind Speed Gust Speed Precip Events Conditions
12:00 AM 68 °F - 66 °F 93% 29.89 in 9 mi NNW 5.8 mph - -   Scattered Clouds
12:00 AM 68.0 °F - 66.2 °F 94% 30.07 in 6.2 mi NNW 5.8 mph - N/A   Mostly Cloudy
1:00 AM 68.0 °F - 66.2 °F 94% 30.06 in 6.2 mi SSE 2.3 mph - N/A   Mostly Cloudy
2:00 AM 68.0 °F - 66.2 °F 94% 30.04 in 6.2 mi East 3.5 mph - N/A   Scattered Clouds
3:00 AM 67 °F - 66 °F 97% 29.87 in 9 mi ESE 3.5 mph - - Fog Patches of Fog
3:00 AM 68.0 °F - 66.2 °F 94% 30.02 in 6.2 mi ESE 3.5 mph - N/A Fog Patches of Fog
4:00 AM 68.0 °F - 64.4 °F 88% 30.00 in - ENE 5.8 mph - N/A   Clear
5:00 AM 66.2 °F - 64.4 °F 94% 30.00 in - NNE 5.8 mph - N/A   Clear
6:00 AM 66 °F - 64 °F 90% 29.89 in 12 mi ESE 4.6 mph - -   Overcast
6:00 AM 66.2 °F - 64.4 °F 94% 30.02 in - ESE 4.6 mph - N/A   Clear
6:43 AM 66.2 °F - 66.2 °F 100% 30.03 in 0.3 mi ESE 3.5 mph - N/A Fog Fog
7:00 AM 68.0 °F - 66.2 °F 94% 30.04 in 0.7 mi East 3.5 mph - N/A   Mostly Cloudy
7:30 AM 71.6 °F - 64.4 °F 78% 30.04 in 6.2 mi ENE 2.3 mph - N/A   Mostly Cloudy
8:00 AM 73.4 °F - 64.4 °F 73% 30.05 in 6.2 mi East 3.5 mph - N/A   Scattered Clouds
9:00 AM 79 °F - 62 °F 46% 29.87 in 12 mi North 4.6 mph - -   Scattered Clouds
9:00 AM 78.8 °F - 62.6 °F 57% 30.04 in 6.2 mi North 4.6 mph - N/A   Scattered Clouds
10:00 AM 78.8 °F - 68.0 °F 69% 30.05 in 6.2 mi West 6.9 mph - N/A   Scattered Clouds
11:00 AM 78.8 °F - 69.8 °F 74% 30.04 in 6.2 mi WSW 11.5 mph - N/A   Scattered Clouds
12:00 PM 78 °F - 69 °F 68% 29.84 in 12 mi WSW 11.5 mph - -   Mostly Cloudy
12:00 PM 77.0 °F - 69.8 °F 78% 30.01 in 6.2 mi WSW 11.5 mph - N/A   Mostly Cloudy
1:00 PM 80.6 °F 83.9 °F 69.8 °F 70% 29.98 in 6.2 mi WSW 10.4 mph - N/A   Scattered Clouds
1:44 PM 71.6 °F - 64.4 °F 78% 29.98 in 5.0 mi WNW 12.7 mph - N/A Rain , Thunderstorm Thunderstorms and Rain
2:00 PM 69.8 °F - 64.4 °F 83% - 5.0 mi NNW 8.1 mph - N/A Rain , Thunderstorm Thunderstorms and Rain
3:00 PM 69 °F - 68 °F 96% 29.86 in 3 mi South 4.6 mph - - Rain Light Rain
3:00 PM 69.8 °F - 68.0 °F 94% 2.99 in 3.1 mi South 4.6 mph - N/A Rain Light Rain
4:00 PM 69.8 °F - 66.2 °F 88% 29.98 in 6.2 mi South 3.5 mph - N/A   Mostly Cloudy
5:00 PM 69.8 °F - 68.0 °F 94% 29.99 in 6.2 mi East 2.3 mph - N/A Rain Light Rain
5:27 PM 69.8 °F - 68.0 °F 94% - 3.1 mi East 3.5 mph - N/A Rain , Thunderstorm Light Thunderstorms and Rain
6:00 PM 69 °F - 68 °F 94% 29.91 in 9 mi Calm Calm - - Rain Light Rain
6:00 PM - - 68.0 °F N/A% 30.01 in 6.2 mi East 2.3 mph - N/A Rain Light Rain
7:00 PM 68.0 °F - 68.0 °F 100% 30.03 in 6.2 mi Calm Calm - N/A   Mostly Cloudy
8:00 PM 68.0 °F - 68.0 °F 100% 30.06 in 0.3 mi SSW 3.5 mph - N/A Fog Fog
8:12 PM 68.0 °F - 68.0 °F 100% 30.06 in 1.2 mi SSW 2.3 mph - N/A   Mostly Cloudy
9:00 PM 67 °F - 66 °F 96% 29.89 in 9 mi East 3.5 mph - -   Overcast
9:00 PM 68.0 °F - 66.2 °F 94% 30.07 in 6.2 mi East 3.5 mph - N/A   Mostly Cloudy
10:00 PM 68.0 °F - 66.2 °F 94% 30.05 in - NE 5.8 mph - N/A   Clear
11:00 PM 64.4 °F - 62.6 °F 94% 30.03 in - ENE 3.5 mph - N/A   Clear